TAP175 LPPT-LPPR

Flight info

Callsign TAP175
Flight time N/A
Altitude 22000
Route IXIDA DCT ABLEG
Aircraft A321/M-SDE3FGHIRWY/LB1

Departure

Time 2026-05-08 10:53
Airport Lisbon Humberto Delgado Airport (LPPT)

Arrival

Time N/A
Airport Francisco de Sá Carneiro Airport (LPPR)
Time Latitude Longitude Altitude Speed Heading
2026-05-08 10:36 38.77206 -9.13143 333 ft 0 kts 78°
2026-05-08 10:43 38.77204 -9.13152 333 ft 4 kts 78°
2026-05-08 10:43 38.77199 -9.13186 334 ft 4 kts 69°
2026-05-08 10:44 38.77190 -9.13206 333 ft 4 kts 37°
2026-05-08 10:44 38.77176 -9.13215 333 ft 4 kts
2026-05-08 10:44 38.77164 -9.13215 334 ft 0 kts 348°
2026-05-08 10:46 38.77199 -9.13225 335 ft 9 kts 347°
2026-05-08 10:47 38.77269 -9.13245 338 ft 10 kts 348°
2026-05-08 10:47 38.77330 -9.13258 336 ft 8 kts 352°
2026-05-08 10:47 38.77381 -9.13267 335 ft 7 kts 351°
2026-05-08 10:47 38.77446 -9.13283 338 ft 14 kts 348°
2026-05-08 10:48 38.77455 -9.13286 335 ft 15 kts 348°
2026-05-08 10:48 38.77568 -9.13316 336 ft 20 kts 350°
2026-05-08 10:48 38.77697 -9.13329 339 ft 17 kts 349°
2026-05-08 10:48 38.77792 -9.13355 350 ft 10 kts 346°
2026-05-08 10:49 38.77861 -9.13373 348 ft 14 kts 350°
2026-05-08 10:49 38.77992 -9.13405 355 ft 24 kts 348°
2026-05-08 10:49 38.78149 -9.13355 362 ft 23 kts 23°
2026-05-08 10:49 38.78293 -9.13277 366 ft 22 kts 22°
2026-05-08 10:50 38.78413 -9.13221 363 ft 16 kts
2026-05-08 10:50 38.78508 -9.13245 367 ft 6 kts 331°
2026-05-08 10:50 38.78512 -9.13248 367 ft 0 kts 328°
2026-05-08 10:51 38.78527 -9.13268 361 ft 10 kts 306°
2026-05-08 10:51 38.78552 -9.13349 363 ft 5 kts 274°
2026-05-08 10:52 38.78530 -9.13378 363 ft 4 kts 207°
2026-05-08 10:52 38.78520 -9.13384 361 ft 0 kts 202°
2026-05-08 10:52 38.78519 -9.13384 361 ft 2 kts 202°
2026-05-08 10:52 38.78337 -9.13480 366 ft 63 kts 202°
2026-05-08 10:53 38.77732 -9.13804 369 ft 123 kts 203°
2026-05-08 10:53 38.76791 -9.14304 373 ft 167 kts 203°
2026-05-08 10:53 38.75714 -9.14885 876 ft 167 kts 201°
2026-05-08 10:53 38.74617 -9.15491 1306 ft 175 kts 202°
2026-05-08 10:54 38.73479 -9.16111 1725 ft 185 kts 204°
2026-05-08 10:54 38.72210 -9.16803 1749 ft 210 kts 202°
2026-05-08 10:54 38.70774 -9.17558 1963 ft 233 kts 201°
2026-05-08 10:54 38.70562 -9.17669 2055 ft 234 kts 201°
2026-05-08 10:55 38.69019 -9.18479 2729 ft 240 kts 200°
2026-05-08 10:55 38.67483 -9.19291 3470 ft 244 kts 201°
2026-05-08 10:55 38.65917 -9.20148 4228 ft 247 kts 207°
2026-05-08 10:55 38.64683 -9.21679 4942 ft 255 kts 242°
2026-05-08 10:56 38.64383 -9.23930 5644 ft 268 kts 274°
2026-05-08 10:56 38.64914 -9.26234 6397 ft 274 kts 289°
2026-05-08 10:56 38.65804 -9.28403 7075 ft 280 kts 304°
2026-05-08 10:56 38.66020 -9.28746 7186 ft 282 kts 310°
2026-05-08 10:57 38.66377 -9.29197 7339 ft 286 kts 317°
2026-05-08 10:57 38.68120 -9.30474 7980 ft 294 kts 338°
2026-05-08 10:57 38.72200 -9.30486 9286 ft 306 kts 24°
2026-05-08 10:58 38.74040 -9.29087 9929 ft 309 kts 33°
2026-05-08 10:58 38.75868 -9.27538 10216 ft 325 kts 34°
2026-05-08 10:58 38.77801 -9.25873 10347 ft 345 kts 34°
2026-05-08 10:58 38.79852 -9.24101 10465 ft 364 kts 34°
2026-05-08 10:59 38.81973 -9.22275 10611 ft 381 kts 34°
2026-05-08 10:59 38.84182 -9.20328 11026 ft 387 kts 38°
2026-05-08 10:59 38.86182 -9.17990 11496 ft 391 kts 48°
2026-05-08 10:59 38.88003 -9.15372 12065 ft 394 kts 49°
2026-05-08 11:00 38.89834 -9.12736 12569 ft 398 kts 49°
2026-05-08 11:00 38.91685 -9.10077 13097 ft 401 kts 49°
2026-05-08 11:00 38.93554 -9.07387 13596 ft 405 kts 48°
2026-05-08 11:00 38.95433 -9.04683 14052 ft 408 kts 48°
2026-05-08 11:01 38.97327 -9.01949 14487 ft 411 kts 48°
2026-05-08 11:01 38.99232 -8.99194 14918 ft 414 kts 49°
2026-05-08 11:01 39.01149 -8.96417 15335 ft 417 kts 48°
2026-05-08 11:01 39.03077 -8.93625 15768 ft 418 kts 48°
2026-05-08 11:02 39.05014 -8.90818 16172 ft 421 kts 48°
2026-05-08 11:02 39.08920 -8.85142 16922 ft 426 kts 49°
2026-05-08 11:02 39.10891 -8.82274 17286 ft 429 kts 49°
2026-05-08 11:03 39.12875 -8.79389 17647 ft 431 kts 49°
2026-05-08 11:03 39.14867 -8.76491 18014 ft 434 kts 49°
2026-05-08 11:03 39.16874 -8.73569 18345 ft 437 kts 49°
2026-05-08 11:03 39.18106 -8.71770 18533 ft 438 kts 49°
2026-05-08 11:04 39.19583 -8.69617 18750 ft 440 kts 48°
2026-05-08 11:04 39.21614 -8.66651 19053 ft 443 kts 48°
2026-05-08 11:04 39.23654 -8.63666 19373 ft 445 kts 49°